This is the latest recevied weather packets stored in our database for station/object N5GC-2. If no packets are shown the sender has not sent any weather packets the latest 10 day(s).
| Time | Temp. | Humidity | Pressure | Rain* | Wind** | Luminosity | Snow |
|---|---|---|---|---|---|---|---|
| 1777742058 | 22.78° C | 32% | - | 0 mm | - | - | - |
| 1777741148 | 22.22° C | 32% | - | 0 mm | - | - | - |
| 1777739935 | 21.67° C | 35% | - | 0 mm | - | - | - |
| 1777739329 | 21.67° C | 34% | - | 0 mm | - | - | - |
| 1777739026 | 21.11° C | 38% | - | 0 mm | - | - | - |
| 1777738723 | 21.11° C | 35% | - | 0 mm | - | - | - |
| 1777738117 | 21.11° C | 34% | - | 0 mm | - | - | - |
| 1777737816 | 21.11° C | 37% | - | 0 mm | - | - | - |
| 1777737514 | 21.11° C | 35% | - | 0 mm | - | - | - |
| 1777736907 | 20.56° C | 38% | - | 0 mm | - | - | - |
| 1777736293 | 20° C | 41% | - | 0 mm | - | - | - |
| 1777735990 | 19.44° C | 38% | - | 0 mm | - | - | - |
| 1777735687 | 18.89° C | 41% | - | 0 mm | - | - | - |
| 1777735385 | 17.78° C | 41% | - | 0 mm | - | - | - |
| 1777735082 | 17.22° C | 41% | - | 0 mm | - | - | - |
| 1777734779 | 16.67° C | 43% | - | 0 mm | - | - | - |
| 1777734477 | 16.11° C | 46% | - | 0 mm | - | - | - |
| 1777733869 | 15.56° C | 51% | - | 0 mm | - | - | - |
| 1777733566 | 15° C | 50% | - | 0 mm | - | - | - |
| 1777733262 | 15° C | 63% | - | 0 mm | - | - | - |
| 1777732655 | 14.44° C | 66% | - | 0 mm | - | - | - |
| 1777732353 | 13.89° C | 66% | - | 0 mm | - | - | - |
| 1777732051 | 13.89° C | 68% | - | 0 mm | - | - | - |
| 1777731747 | 13.89° C | 68% | - | 0 mm | - | - | - |
| 1777731444 | 13.33° C | 68% | - | 0 mm | - | - | - |
* Rain latest hour (hover to see other rain measurements)
** Current wind speed in m/s (hover to see current wind gust speed)